Location: Dillon
(41.1766°N, 107.0923°W)
Time: 08:34:31
(UTC+00:00)

QB50P2 - Pass Details

Date: 27 June 2022
Orbit: 590 x 605 km, 97.9° (Epoch: 17 August)

Event Time Altitude Azimuth Distance (km) Brightness Sun altitude
Rises 09:03:14 0° 5° (N) 2,855 ? -20.5°
Reaches altitude 10° 09:05:30 10° 358° (N) 1,951 ? -20.3°
Maximum altitude 09:09:28 40° 289° (WNW) 888 ? -19.9°
Enters shadow 09:10:16 36° 260° (W) 955 ? -19.9°
